Regional Weather Roundup
Issued by NWS

Home | Current Version | Previous Version | Text Only | Print | Product List | Glossary Off
Versions: 1 2 3 4 5 6 7 8 9 10 11 12 13 14 15 16 17 18 19 20 21 22 23 24 25 26 27 28 29 30 31 32 33 34 35 36 37 38 39 40 41 42 43 44 45 46 47 48 49 50

000
ASUS43 KDMX 012307
RWRIA

WEATHER ROUNDUP FOR IOWA
NATIONAL WEATHER SERVICE DES MOINES IA
600 PM CDT MON JUN 01 2015

NOTE: "FAIR" INDICATES FEW OR NO CLOUDS BELOW 12,000 FEET WITH NO
SIGNIFICANT WEATHER AND/OR OBSTRUCTIONS TO VISIBILITY.

* - THESE STATIONS ARE NOT NWS STATIONS...THUS NOT UNDER NWS
QUALITY CONTROL.  THEY ALSO DO NOT REPORT WEATHER SUCH
AS PRECIPITATION OR FOG.

IAZ001>003-012>014-020>022-031>034-043>046-020000-
   NORTHWEST IOWA

CITY           SKY/WX    TMP DP  RH WIND       PRES   REMARKS
CARROLL *      SUNNY     72  46  40 S9G16     30.10S
CHEROKEE *     SUNNY     75  45  33 S15       30.07S
DENISON *      SUNNY     73  48  40 S9G17     30.07S
LE MARS *      SUNNY     77  50  38 S14       30.05F
ORANGE CITY *  SUNNY     73  48  40 S14G20    30.06S
SHELDON *      SUNNY     75  45  33 SE16G24   30.05S
SIOUX CITY     SUNNY     78  47  33 S15G23    30.05S
SPENCER        SUNNY     74  46  36 SE17      30.08F
$$

IAZ055>058-069>071-079>083-090>094-020000-
   SOUTHWEST IOWA

CITY           SKY/WX    TMP DP  RH WIND       PRES   REMARKS
ATLANTIC *     SUNNY     72  48  43 S10G16    30.09F
AUDUBON *      SUNNY     72  48  43 S7        30.11F
CLARINDA *     SUNNY     73  52  46 SE8       30.11F
COUNCIL BLFS * SUNNY     73  54  49 S10G17    30.09R
CRESTON *      SUNNY     70  48  46 SE10      30.12S
HARLAN  *      SUNNY     73  50  43 S12       30.12S
LAMONI         MOSUNNY   72  53  51 E6        30.12F
RED OAK *      SUNNY     73  52  46 S10       30.09S
SHENANDOAH *   SUNNY     73  50  43 S9G16     30.10S
$$

IAZ047>049-059>061-072>074-084-020000-
   CENTRAL IOWA

CITY           SKY/WX    TMP DP  RH WIND       PRES   REMARKS
AMES           SUNNY     71  45  39 S13       30.11F
ANKENY *       SUNNY     72  46  40 SE13      30.11F
CHARITON *     MOSUNNY   68  54  60 SE10      30.14S
DES MOINES     MOSUNNY   72  44  36 SE10      30.12F
GRINNELL*      PTSUNNY   72  52  49 SE10      30.14F
KNOXVILLE *    MOSUNNY   70  52  52 S13       30.12S
MARSHALLTOWN   MOSUNNY   70  49  47 E12       30.12F
PELLA *        MOSUNNY   70  57  64 SE7       30.14F
PERRY *          N/A     72  39  30 SE10      30.11S
$$

IAZ004>006-015-016-023>025-035-036-020000-
   NORTH CENTRAL IOWA

CITY           SKY/WX    TMP DP  RH WIND       PRES   REMARKS
ALGONA *       MOSUNNY   72 -35   1 SE9G15    30.12S
CLARION *      SUNNY     72  34  25 E14G25    30.13S
ESTHERVILLE    SUNNY     70  45  40 S15G22    30.09F
FORT DODGE *   SUNNY     72  45  37 SE6       30.12F
MASON CITY     SUNNY     71  39  31 SE12G21   30.15S
FOREST CITY *  SUNNY     66  37  34 SE8       30.14S
IOWA FALLS *     N/A     72  39  30 SE10      30.14S
$$

IAZ007>011-017>019-026>030-037>042-050>054-066-020000-
   NORTHEAST IOWA

CITY           SKY/WX    TMP DP  RH WIND       PRES   REMARKS
CEDAR RAPIDS   SUNNY     70  45  40 E7        30.14F
CHARLES CITY * SUNNY     70  37  30 SE13G18   30.15F
CLINTON *      SUNNY     70  45  40 E6        30.18F
DECORAH *      SUNNY     66  39  37 SE8       30.16F
DUBUQUE        SUNNY     67  40  37 E5        30.17F
MONTICELLO *   SUNNY     68  37  32 E8        30.16F
OELWEIN *      SUNNY     70  34  26 SE8G16    30.16S
WATERLOO       MOSUNNY   70  42  36 SE9       30.14S
$$

IAZ064-065-067-068-078-020000-
   EAST CENTRAL IOWA

CITY           SKY/WX    TMP DP  RH WIND       PRES   REMARKS
DAVENPORT      SUNNY     69  47  45 VRB3      30.16S
IOWA CITY      SUNNY     70  47  43 VRB3      30.15S
MT. PLEASANT * CLOUDY    68  52  56 SE8       30.15S
MUSCATINE *    CLOUDY    70  50  49 SE7       30.15S
QUAD CITIES    MOSUNNY   71  49  45 CALM      30.14F
$$

IAZ062-063-075>077-085>089-095>099-020000-
   SOUTHEAST IOWA

CITY           SKY/WX    TMP DP  RH WIND       PRES   REMARKS
BURLINGTON     CLOUDY    68  54  60 S6        30.15R
FAIRFIELD *    PTSUNNY   70  52  52 SE5       30.14S
FORT MADISON *   N/A     66  55  68 SE5       30.16S
KEOKUK *       CLOUDY    68  55  64 VRB7      30.15S
OSKALOOSA *    CLOUDY    68  52  56 SE5       30.14F
CENTERVILLE *  PTSUNNY   64  64 100 SE7       30.16F
OTTUMWA        CLOUDY    67  53  61 S5        30.14S
WASHINGTON *   CLOUDY    70  50  49 SE7       30.16S
$$

ABBREVIATIONS USED IN REMARKS
   TC - TEMPERATURES IN CELSIUS
  WCI - WIND CHILL INDEX
   HX - HEAT INDEX
  VSB - VISIBILITY
$$



USA.gov is the U.S. government's official web portal to all federal, state and local government web resources and services.